Вернуться в каталог

STARLINK-3871

АктивенСвязьVLEO
NORAD 52496·PAYLOAD·🇺🇸 United States

Запущен May 6, 2022 с Cape Canaveral Space Force Station

Loading…

Ближайшие Пролёты (ближайшие 24 часа)

TLE

СвежийSource: CelesTrak SupGP

Эпоха: Sep 14, 2026, 20:37 UTC

1 52496C 22049AX  26257.85951389  .00041825  00000+0  12361-2 0  2574
2 52496  53.1602 263.7610 0001292  91.2954  77.8132 15.34360339    10

Отслеживайте STARLINK-3871 в реальном времени с AllMySat

Download on the App Store